Date String (YYYY-MM-DD hh:mm:ss) UTC,Instrument flags,absolute air pressure of the measurement (hPa),sample flow rate (lpm),inlet stack bypass flow (lpm),air temperature of the measurement (°C),ambient temperature measured by the external sensor (°C),aerosol sample conditioner tube jacket temperature (°C),OPC LED temperature (°C),internal box temperature (°C),relative humidity of the measurement (%),span deviation,mass concentration of particles derived from Lorenz-Mie calculation of OPC scattering (μg/m³),mass concentration of particles derived from Lorenz-Mie calculation of OPC scattering (μg/m³),mass concentration of particles derived from Lorenz-Mie calculation of OPC scattering (μg/m³)
DateTimeUTC,F1_M11,P_M11,Q1_M11,Q2_M11,T1_M11,T2_M11,T3_M11,T4_M11,T5_M11,U1_M11,ZSPAN_M11,X2_M11,X0_M11,X1_M11
2023-09-10 20:00:00,SystemResetWarning,0838.1,5.00,000.00,029.1,027.8,000.0,037.4,030.7,33.6,-000.5,0016.00,0029.02,0014.03
2023-09-10 20:01:00,SystemResetWarning,0838.0,4.98,000.00,029.1,026.9,000.0,037.4,030.5,33.4,-000.4,0015.97,0030.22,0014.02
2023-09-10 20:02:00,SystemResetWarning,0837.9,5.00,000.00,029.0,025.1,000.0,037.3,030.1,33.4,-000.4,0015.98,0031.65,0014.02
2023-09-10 20:03:00,SystemResetWarning,0837.8,5.00,000.00,028.9,024.2,000.0,037.2,029.9,33.7,-000.4,0016.02,0031.43,0014.05
2023-09-10 20:04:00,SystemResetWarning,0837.7,5.01,000.00,028.8,024.2,000.0,037.1,029.7,34.0,-000.2,0016.10,0031.10,0014.08
2023-09-10 20:05:00,SystemResetWarning,0837.7,5.01,000.00,028.6,024.5,000.0,037.1,029.6,34.2,-000.3,0016.17,0030.85,0014.12
2023-09-10 20:06:00,SystemResetWarning,0837.8,4.99,000.00,028.5,024.9,000.0,037.1,029.7,34.3,-000.4,0016.12,0031.01,0014.10
2023-09-10 20:07:00,SystemResetWarning,0837.8,5.00,000.00,028.5,025.4,000.0,037.1,029.7,34.2,-000.4,0016.16,0031.84,0014.14
2023-09-10 20:08:00,SystemResetWarning,0837.8,5.00,000.00,028.5,025.8,000.0,037.0,029.8,34.2,-000.6,0016.16,0031.68,0014.16
2023-09-10 20:09:00,SystemResetWarning,0837.8,5.00,000.00,028.5,026.1,000.0,037.0,029.8,34.4,-000.6,0016.16,0031.09,0014.17
2023-09-10 20:10:00,SystemResetWarning,0837.8,5.00,000.00,028.5,026.4,000.0,037.0,029.9,34.5,-000.6,0016.20,0030.71,0014.22
2023-09-10 20:11:00,SystemResetWarning,0837.8,5.00,000.00,028.5,026.7,000.0,037.0,030.0,34.6,-000.4,0016.26,0030.06,0014.34
2023-09-10 20:12:00,SystemResetWarning,0837.8,5.00,000.00,028.5,026.9,000.0,037.0,030.0,34.4,-000.4,0016.40,0030.26,0014.46
2023-09-10 20:13:00,SystemResetWarning,0837.8,5.00,000.00,028.6,027.0,000.0,037.0,030.1,34.2,-000.2,0016.57,0030.45,0014.58
2023-09-10 20:14:00,SystemResetWarning,0837.8,5.00,000.00,028.6,027.2,000.0,037.0,030.1,34.2,-000.3,0016.73,0031.67,0014.69
2023-09-10 20:15:00,SystemResetWarning,0837.8,5.00,000.00,028.6,027.3,000.0,037.0,030.2,34.3,-000.4,0016.85,0031.84,0014.79
2023-09-10 20:16:00,SystemResetWarning,0837.8,5.00,000.00,028.6,027.4,000.0,037.0,030.2,34.3,-000.4,0016.91,0031.54,0014.88
2023-09-10 20:17:00,SystemResetWarning,0837.8,5.00,000.00,028.7,027.5,000.0,037.0,030.2,34.3,-000.2,0017.03,0031.52,0014.99
2023-09-10 20:18:00,SystemResetWarning,0837.8,5.00,000.00,028.7,027.6,000.0,037.0,030.3,34.3,-000.0,0017.19,0031.42,0015.11
2023-09-10 20:19:00,SystemResetWarning,0837.8,5.00,000.00,028.7,027.6,000.0,037.1,030.3,34.2,0000.0,0017.36,0031.80,0015.23
2023-09-10 20:20:00,SystemResetWarning,0837.8,5.00,000.00,028.8,027.7,000.0,037.1,030.4,34.1,0000.0,0017.53,0032.00,0015.38
2023-09-10 20:21:00,SystemResetWarning,0837.8,4.99,000.00,028.8,027.8,000.0,037.1,030.4,33.9,0000.1,0017.64,0032.48,0015.48
2023-09-10 20:22:00,SystemResetWarning,0837.8,5.00,000.00,028.8,027.8,000.0,037.1,030.5,33.8,-000.2,0017.65,0033.16,0015.52
2023-09-10 20:23:00,SystemResetWarning,0837.7,5.00,000.00,028.9,027.8,000.0,037.2,030.5,33.7,-000.3,0017.70,0033.27,0015.54
2023-09-10 20:24:00,SystemResetWarning,0837.7,5.00,000.00,028.9,027.9,000.0,037.2,030.6,33.3,-000.4,0017.72,0032.40,0015.56
2023-09-10 20:25:00,SystemResetWarning,0837.7,4.99,000.00,028.9,026.9,000.0,037.1,030.4,33.2,-000.6,0017.73,0031.40,0015.57
2023-09-10 20:26:00,SystemResetWarning,0837.6,5.01,000.00,028.8,025.4,000.0,037.1,030.1,33.4,-000.6,0017.75,0030.87,0015.60
2023-09-10 20:27:00,SystemResetWarning,0837.6,5.01,000.00,028.8,024.9,000.0,037.0,030.0,33.7,-000.6,0017.71,0031.30,0015.58
2023-09-10 20:28:00,SystemResetWarning,0837.6,5.01,000.00,028.7,025.1,000.0,037.0,029.8,33.9,-000.5,0017.80,0031.73,0015.60
2023-09-10 20:29:00,SystemResetWarning,0837.6,4.99,000.00,028.6,025.4,000.0,037.0,029.8,34.1,-000.6,0017.89,0031.88,0015.61
2023-09-10 20:30:00,SystemResetWarning,0837.5,4.99,000.00,028.6,025.8,000.0,037.0,029.9,34.3,-000.8,0017.88,0032.10,0015.62
2023-09-10 20:31:00,SystemResetWarning,0837.5,5.00,000.00,028.6,026.1,000.0,037.0,029.9,34.4,-000.8,0017.82,0032.28,0015.59
2023-09-10 20:32:00,SystemResetWarning,0837.4,5.01,000.00,028.6,026.4,000.0,037.0,030.0,34.4,-000.8,0017.81,0032.06,0015.59
2023-09-10 20:33:00,SystemResetWarning,0837.4,5.00,000.00,028.6,026.7,000.0,037.0,030.0,34.2,-000.6,0017.94,0032.02,0015.62
2023-09-10 20:34:00,SystemResetWarning,0837.4,5.00,000.00,028.6,026.9,000.0,037.0,030.1,34.3,-000.5,0018.00,0031.78,0015.62
2023-09-10 20:35:00,SystemResetWarning,0837.4,5.00,000.00,028.6,027.1,000.0,037.0,030.2,34.3,-000.4,0017.99,0031.21,0015.60
2023-09-10 20:36:00,SystemResetWarning,0837.5,5.00,000.00,028.6,027.2,000.0,037.0,030.2,34.2,-000.5,0017.91,0030.95,0015.60
2023-09-10 20:37:00,SystemResetWarning,0837.4,5.00,000.00,028.7,027.4,000.0,037.0,030.2,34.3,-000.6,0017.95,0031.27,0015.63
2023-09-10 20:38:00,SystemResetWarning,0837.5,5.00,000.00,028.7,027.5,000.0,037.0,030.3,34.1,-000.6,0018.00,0031.73,0015.66
2023-09-10 20:39:00,SystemResetWarning,0837.5,5.00,000.00,028.7,027.6,000.0,037.1,030.3,33.7,-000.7,0017.91,0032.18,0015.64
2023-09-10 20:40:00,SystemResetWarning,0837.6,5.00,000.00,028.8,027.7,000.0,037.1,030.4,33.3,-000.6,0017.81,0032.45,0015.61
2023-09-10 20:41:00,SystemResetWarning,0837.5,5.00,000.00,028.8,027.7,000.0,037.1,030.4,33.2,-000.5,0017.76,0032.38,0015.60
2023-09-10 20:42:00,SystemResetWarning,0837.5,4.99,000.00,028.8,027.8,000.0,037.1,030.5,33.5,-000.3,0017.75,0032.26,0015.58
2023-09-10 20:43:00,SystemResetWarning,0837.5,4.99,000.00,028.9,027.1,000.0,037.1,030.4,33.4,-000.2,0017.69,0031.87,0015.53
2023-09-10 20:44:00,SystemResetWarning,0837.4,5.00,000.00,028.8,025.3,000.0,037.0,029.9,33.1,-000.3,0017.57,0031.60,0015.47
2023-09-10 20:45:00,SystemResetWarning,0837.4,5.00,000.00,028.7,024.3,000.0,036.9,029.7,33.3,-000.3,0017.55,0031.70,0015.47
2023-09-10 20:46:00,SystemResetWarning,0837.3,5.01,000.00,028.5,024.2,000.0,036.9,029.7,33.7,-000.4,0017.56,0032.75,0015.47
2023-09-10 20:47:00,SystemResetWarning,0837.2,5.01,000.00,028.4,024.5,000.0,036.9,029.6,33.9,-000.2,0017.62,0033.61,0015.47
2023-09-10 20:48:00,SystemResetWarning,0837.2,4.99,000.00,028.4,024.9,000.0,036.9,029.5,33.7,-000.2,0017.53,0033.34,0015.43
2023-09-10 20:49:00,SystemResetWarning,0837.3,4.99,000.00,028.3,025.4,000.0,036.8,029.6,33.8,-000.2,0017.48,0032.79,0015.41
2023-09-10 20:50:00,SystemResetWarning,0837.2,5.00,000.00,028.3,025.7,000.0,036.8,029.7,33.9,-000.2,0017.43,0032.43,0015.41
2023-09-10 20:51:00,SystemResetWarning,0837.2,5.01,000.00,028.3,026.1,000.0,036.8,029.7,33.6,-000.4,0017.49,0031.85,0015.44
2023-09-10 20:52:00,SystemResetWarning,0837.2,5.01,000.00,028.3,026.4,000.0,036.8,029.8,33.5,-000.3,0017.46,0031.92,0015.43
2023-09-10 20:53:00,SystemResetWarning,0837.2,5.00,000.00,028.3,026.6,000.0,036.8,029.9,33.5,-000.4,0017.41,0031.97,0015.40
2023-09-10 20:54:00,SystemResetWarning,0837.2,4.99,000.00,028.4,026.8,000.0,036.8,029.9,33.7,-000.5,0017.50,0032.49,0015.39
2023-09-10 20:55:00,SystemResetWarning,0837.2,5.00,000.00,028.4,027.0,000.0,036.8,030.0,33.4,-000.5,0017.46,0033.12,0015.38
2023-09-10 20:56:00,SystemResetWarning,0837.2,5.00,000.00,028.4,027.1,000.0,036.8,030.0,33.1,-000.4,0017.43,0033.49,0015.35
2023-09-10 20:57:00,SystemResetWarning,0837.2,5.00,000.00,028.5,027.3,000.0,036.8,030.1,33.0,-000.4,0017.38,0032.56,0015.31
2023-09-10 20:58:00,SystemResetWarning,0837.2,5.00,000.00,028.5,027.4,000.0,036.9,030.1,33.3,-000.5,0017.30,0032.04,0015.28
2023-09-10 20:59:00,SystemResetWarning,0837.2,5.01,000.00,028.5,027.5,000.0,036.9,030.2,33.5,-000.5,0017.23,0032.49,0015.19
